Regional Weather Roundup
Issued by NWS Wakefield, VA

Home | Current Version | Previous Version | Text Only | Print | Product List | Glossary Off
Versions: 1 2 3 4 5 6 7 8 9 10 11 12 13 14 15 16 17 18 19 20 21 22 23 24 25 26 27

000
ASUS41 KAKQ 281515
RWRAKQ

REGIONAL WEATHER ROUNDUP
NATIONAL WEATHER SERVICE WAKEFIELD VA
1100 AM EDT WED JUN 28 2017

Note: "fair" indicates few or no clouds below 12,000 feet with no
significant weather and/or obstructions to visibility. * = Denotes
station may not report precipitation (e.g., rain,snow,etc.),
thunder or fog.

VAZ042-051-052>054-056-281600-
NORTHERN VIRGINIA

CITY           SKY/WX    TMP DP  RH WIND       PRES   REMARKS
WASH NATIONAL  MOSUNNY   76  47  35 VRB7      30.21R
DULLES         MOSUNNY   74  50  42 W6        30.21S
FORT BELVOIR   SUNNY     76  47  35 W7        30.21R
QUANTICO       MOSUNNY   76  51  41 NW6       30.22R
FREDERICKSBRG* SUNNY     75  51  43 NW6       30.21R
STAFFORD*      SUNNY     74  49  40 W5        30.26R
WARRENTON      SUNNY     76  44  31 S5        30.21S
CULPEPER*      SUNNY     74  52  45 CALM      30.22S
MANASSAS*      SUNNY     73  52  46 VRB5      30.21F
LEESBURG*      SUNNY     75  55  50 NW6       30.22S
WINCHESTER     MOSUNNY   70  48  46 N3        30.21F
FRONT ROYAL*   PTSUNNY   72  52  49 S8        30.21S
LURAY*         SUNNY     70  52  52 CALM      30.22F
$$

VAZ048-049-060>072-079>083-281600-
CENTRAL AND SOUTH CENTRAL VIRGINIA

CITY           SKY/WX    TMP DP  RH WIND       PRES   REMARKS
RICHMOND       MOSUNNY   76  51  41 NE10      30.21R
CHESTERFIELD*  NOT AVBL
PETERSBURG*    SUNNY     75  46  34 CALM      30.22R
HANOVER        SUNNY     74  49  41 VRB3      30.23R
TAPPAHANNOCK*  SUNNY     76  46  34 N6        30.22R
QUINTON*       FAIR      74  51  44 NE7       30.21R
CHARLOTTSVILLE SUNNY     74  49  41 VRB5      30.22S
GORDONSVILLE*  SUNNY     73  47  39 NW5       30.21S
ORANGE*        SUNNY     73  50  43 NW3       30.21F
LOUISA*        SUNNY     77  54  44 SW3       30.21S
BUMPASS*       FAIR      73  50  45 W7        30.22S
FARMVILLE*     SUNNY     75  43  30 E3        30.22R
CREWE*         FAIR      73  44  35 E3        30.23R
FORT PICKETT*  FAIR     N/A N/A N/A E5        30.22R
CHASE CITY*    FAIR      73  52  47 CALM      30.23R
CLARKSVILLE*   FAIR      73  54  49 E3        30.23R
SOUTH HILL*    SUNNY     73  53  49 CALM      30.27R
LAWRENCEVILLE* FAIR      74  51  45 CALM      30.21R
EMPORIA*       SUNNY     73  48  40 CALM      30.22R
$$

VAZ088>098-281600-
SOUTHEAST VIRGINIA

CITY           SKY/WX    TMP DP  RH WIND       PRES   REMARKS
NORFOLK        SUNNY     76  56  49 NE10      30.19R
VIRGINIA BEACH MOSUNNY   75  52  44 NE8       30.18R
NORFOLK NAVAL  MOSUNNY   78  53  41 NE9       30.21R
WEST POINT*    SUNNY     75  48  37 NE5       30.21S
SALUDA*        FAIR      74  55  49 NW5       30.20R
NEWPORT NEWS   SUNNY     76  55  48 N6        30.19R
LANGLEY AFB    MOSUNNY   75  58  54 E9        30.19R
FORT EUSTIS    SUNNY     80  52  38 N5        30.17R
WILLIAMSBURG*  SUNNY     79  54  41 CALM      30.20R
HR EXEC AP*    FAIR      79  55  44 E7        30.17R
FRANKLIN*      SUNNY     75  54  46 N5        30.20R
US460-WAKEFLD  SUNNY     76  52  43 CALM      30.20R
$$

VAZ020-022-025-037-045-281600-
WEST CENTRAL AND SOUTHWEST VIRGINIA

CITY           SKY/WX    TMP DP  RH WIND       PRES   REMARKS
STAUNTON*      SUNNY     69  47  46 CALM      30.25F
WAYNESBORO*    SUNNY     68  46  44 NW3       30.25F
HOT SPRINGS VA SUNNY     59  37  44 CALM      30.31S
LYNCHBURG      SUNNY     73  49  42 VRB3      30.24R
DANVILLE       SUNNY     73  55  53 VRB5      30.25R
SOUTH BOSTON*  FAIR      73  53  49 CALM      30.24R
MARTINSVILLE   SUNNY     72  50  46 CALM      30.27F
ROANOKE        MOSUNNY   72  49  44 VRB5      30.26F
BLACKSBURG     SUNNY     67  51  56 CALM      30.31S
DUBLIN*        SUNNY     70  43  37 S3        30.28F
MARION*        SUNNY     70  44  39 CALM      30.29F
HILLSVILLE*    SUNNY     67  45  44 CALM      30.28S
RICHLANDS*     FAIR      68  10  10 SW3       30.28S
WISE*          SUNNY     70  48  46 CALM      30.28S
ABINGDON*      SUNNY     72  51  47 SE3       30.25F
$$

MDZ021>025-VAZ099-100-281600-
SOUTHERN MARYLAND AND THE DELMARVA PENINSULA

CITY           SKY/WX    TMP DP  RH WIND       PRES   REMARKS
PATUXENT RIVER MOSUNNY   73  53  49 CALM      30.20R
BAY BRIDGE APT SUNNY     73  50  43 NW6       30.20S
LEONARDTOWN    SUNNY     72  46  40 NW6       30.22R
DOVER          SUNNY     74  53  47 NW9       30.17R
GEORGETOWN     SUNNY     74  48  39 VRB5      30.19R
EASTON         SUNNY     73  46  38 N7        30.23R
CAMBRIDGE      SUNNY     73  50  43 NW7G14    30.20R
SALISBURY      SUNNY     75  50  41 NW10      30.18R
OCEAN CITY     SUNNY     75  52  44 N9        30.18R
WALLOPS ISLAND SUNNY     75  50  41 NW12      30.19R
ACCOMACK*      SUNNY     76  47  36 N5        30.19R
$$

NCZ012>017-030>032-281600-
NORTH CENTRAL AND EASTERN NORTH CAROLINA

CITY           SKY/WX    TMP DP  RH WIND       PRES   REMARKS
ROANOKE RAPIDS FAIR      73  52  46 E5        30.21R
RALEIGH        MOSUNNY   77  52  41 VRB6      30.23R
ELIZABETH CITY SUNNY     76  56  49 NE10      30.18S
AHOSKIE*         N/A     74  58  58 N6        30.20R
EDENTON*       SUNNY     78  60  52 CALM      30.19R
CURRITUCK*     SUNNY     76  55  47 NE7       30.19R
KILL DEVIL HLS SUNNY     75  60  59 NE6       30.17R
MANTEO         SUNNY     75  61  61 NE15      30.18R
CAPE HATTERAS  NOT AVBL
TARBORO*       NOT AVBL
GOLDSBORO      SUNNY     78  60  53 CALM      30.18R
WASHINGTON     SUNNY    N/A N/A N/A E8        30.19R
GREENVILLE     SUNNY     79  59  50 SE6       30.19S
NEW BERN       SUNNY     78  62  57 N6        30.19R
WILMINGTON     SUNNY     81  56  42 NE8       30.18R
$$

VAZ048-281600-
ELSEWHERE

CITY           SKY/WX    TMP DP  RH WIND       PRES   REMARKS
HARRISBURG PA  SUNNY     73  50  44 NW6       30.18R
BALTIMORE      MOSUNNY   75  48  38 NW9       30.19S
ANNAPOLIS      SUNNY     71  51  49 NW7       30.20R
ANDREWS AFB    MOSUNNY   74  47  38 CALM      30.19S
PHILADELPHIA   MOSUNNY   73  46  38 NW10      30.17R
HENDERSON NC   SUNNY     72  51  48 NE5       30.23R
GREENSBORO     MOSUNNY   73  54  51 E5        30.24R
ROCKY MOUNT    SUNNY     77  59  53 N7        30.21R
$$

VAZ100-281600-
MARINE

STATION/POSITION TIME  TEMP    WIND        PRES    WAVE   SWELL
                       AIR SEA DIR/SP/G            HT/PER HT/PER
                 (UTC) (F)     (DEG/KT/KT) (MB)    (FT/S) (FT/S)
BRANDYWINE LGT   1448          340/  8/ 12   N/A
CAPE MAY NJ      1448   71 67  330/  8/ 12 1021.7R
LEWES DE         1448   69 70  340/  8/ 10 1022.1R
15NM E FENWICK I 1450   67 68  330/  8/  8 1022.3R   1/ 3   2/10
OCEAN-CITY-INLET 1448   71 66   20/  7/ 10 1022.3R
WACHAPREAGUE VA  1448   75 75  350/  5/ 10 1022.0R
THOMAS POINT MD  1500   70 76  160/  3/  5   N/A
GOOSES REEF MD   1450   71      10/  6/ 10 1023.6R
COVE POINT MD    1448   70     350/  7/  9 1023.4R
SOLOMONS ISLAND  1448   72 78  340/  6/ 12   N/A
BISHOPS HEAD MD  1448   73 76  360/  5/ 10 1022.6R
PINEY POINT MD   1442          320/  7/  9   N/A
POTOMAC MD       1450   72      40/  6/ 10 1021.8R
CAMBRIDGE MD     1448   74 80              1023.2R
LEWISETTA VA     1448   72 78   30/  4/  6 1022.6R
RAPPAHANNOCK LGT 1442           10/ 10/ 13 1023.0R
STINGRAY PT      1450   72      40/  8/ 12 1022.6R
YORK RVR RNG VA  1448   73      70/  9/ 11 1022.7R
YORKTOWN VA      1448   74 78   50/  6/  7 1022.1R
JAMESTOWN VA     1450   74      30/  4/ 10   N/A
DOMINION TERM VA 1448   73      90/  7/ 12 1022.5R
KIPTOPEKE VA     1448      74   80/  6/  9   N/A
CHES BAY BRIDGE  1448   70 75  100/ 10/ 12 1022.2R
CAPE HENRY VA    1448   69      50/  8/ 10   N/A
WILLOUBY STN VA  1448   72      40/ 10/ 13 1022.2R
S CRANEY ISL VA  1448   73      20/  8/ 12 1021.9R
CAPE HENRY BUOY  1430      71                N/A     2/ 4
1ST LANDING BUOY 1450   71                 1022.4R
CAPE CHARLES BUO 1451      70                N/A     2/ 4
64NM E OF VA BCH 1450   71 74   40/ 10/ 12 1022.0R   3/ 5   2/ 5
DUCK PIER NC     1448   71 74   30/ 11/ 12 1021.7R
44100 DUCK FRF   1405      72                N/A     3/ 4
OREGON INLET NC  1448           30/ 11/ 14   N/A
HATTERAS NC      1448   76 78   20/ 11/ 12 1021.2R
DIAMOND SHLS NC  1450   76 80  360/ 12/ 14 1020.9R   2/ 6   2/ 6
CAPE LOOKOUT NC  1400   78      40/ 10/ 11 1021.0R
$$




USA.gov is the U.S. government's official web portal to all federal, state and local government web resources and services.